User: anonymous   Login
Location: Meetinghouse Hill
(42.7686°N, 71.7752°W)
Time: 00:17:04
(UTC-04:00)
Language:

Iridium 34 - Orbit

View from above orbital plane
View from above orbital plane
View from above satellite
View from above satellite

Ground track
Ground track

The orbit data is extracted from the following two-line orbital elements,

1 24969U 97056E   17146.57022433 -.00000013 +00000-0 -11719-4 0  9991
2 24969 086.3936 327.8585 0002032 087.8589 272.2840 14.34217746029440
Epoch (UTC): 26 May 2017 13:41:07
Eccentricity: 0.0002032
inclination: 86.3936°
perigee height: 776 km
apogee height: 779 km
right ascension of ascending node: 327.8585°
argument of perigee: 87.8589°
revolutions per day: 14.34217746
mean anomaly at epoch: 272.2840°
orbit number at epoch: 2944

The dashed part of the orbit path shows where the satellite is in the earth's shadow,  

DLR